Regional Weather Roundup
Issued by NWS

Home | Current Version | Previous Version | Graphics & Text | Print | Product List | Glossary On
Versions: 1 2 3 4 5 6 7 8 9 10 11 12 13 14 15 16 17 18 19 20 21 22 23 24 25 26 27 28 29 30 31 32 33 34 35 36 37 38 39 40 41 42 43 44 45 46 47 48 49 50
000
ASUS45 KCYS 290910
RWRWY

WYOMING REGIONAL WEATHER ROUNDUP
NATIONAL WEATHER SERVICE CHEYENNE WY
300 AM MDT SUN MAR 29 2015

NOTE:  "FAIR" INDICATES FEW OR NO CLOUDS BELOW 12,000 FEET
WITH NO SIGNIFICANT WEATHER AND/OR OBSTRUCTIONS TO VISIBILITY.

WYZ001-291000-
YELLOWSTONE NATIONAL PARK

CITY           SKY/WX    TMP DP  RH WIND       PRES   REMARKS
LK YELLOWSTONE   N/A     23  14  68 CALM      30.32R
W YELLOWSTONE  NOT AVBL

$$
WYZ002>013-054>058-071-098>099-291000-
NORTHERN WYOMING

CITY           SKY/WX    TMP DP  RH WIND       PRES   REMARKS
JACKSON        FAIR      30  21  69 NE5       30.30R WCI  25
CODY           FAIR      43  14  31 W3        30.21S
GREYBULL       FAIR      47  22  37 N8        30.20R
WORLAND        FAIR      42  19  39 NW5       30.21R
SHERIDAN       MOCLDY    44  27  51 NW15      30.19R
BUFFALO        FAIR      42  26  53 NW28G40   30.12R
GILLETTE       CLOUDY    42  32  67 NW20G33   30.13R
HULETT         CLOUDY    41  34  75 NW12G24   30.10R
NEWCASTLE      CLOUDY    41  32  70 NW31G45   30.10R

$$
WYZ014>020-022>026-101>103-291000-
CENTRAL WYOMING

CITY           SKY/WX    TMP DP  RH WIND       PRES   REMARKS
BIG PINEY      FAIR      29  17  61 N10       30.28F WCI  20
PINEDALE       FAIR      28  21  74 NW7       30.28S WCI  21
DUBOIS         FAIR      32  14  47 N10G16    30.25R WCI  24
LANDER         FAIR      42  16  34 NW12      30.24R
RIVERTON       FAIR      41  14  33 NE5       30.24R
CASPER         FAIR      37  12  35 NW8       30.18R WCI  31
DOUGLAS        FAIR      44  16  32 NW14G26   30.17R

$$
WYZ021-027>030-104>119-291000-
SOUTHERN WYOMING

CITY           SKY/WX    TMP DP  RH WIND       PRES   REMARKS
EVANSTON       FAIR      36  16  44 N5        30.32R WCI  32
ROCK SPRINGS   FAIR      37  16  42 N13       30.28R WCI  29
DIXON          FAIR      35  20  53 CALM      30.29S
RAWLINS        FAIR      37  19  48 NW10      30.23R WCI  30
SARATOGA       FAIR      37  21  52 W10       30.24R WCI  30
LARAMIE        FAIR      39  19  44 NW13      30.17R WCI  31
CHEYENNE       FAIR      43  22  43 NW18G30   30.10R
TORRINGTON     FAIR      47  13  25 NW17      30.08R
PINE BLUFFS    FAIR      41  18  38 N9        30.11R

$$


USA.gov is the U.S. government's official web portal to all federal, state and local government web resources and services.